| time (UTC) | temp F | wind direction | speed knots | gust knots | rain 1hr in | rain 24hr in | rain mn in | humidity % | barometer mb |
| 20260510060718 | 53 | 177 | 0.0 | 0.0 | 0.00 | 0.00 | 0.00 | 97 | 1010.5 |
| 20260510060215 | 53 | 177 | 0.0 | 0.0 | 0.00 | 0.00 | 0.00 | 97 | 1010.3 |
| 20260510055711 | 53 | 177 | 0.0 | 0.0 | 0.00 | 0.00 | 0.00 | 97 | 1010.4 |
| 20260510055210 | 53 | 177 | 0.0 | 0.0 | 0.00 | 0.00 | 0.00 | 97 | 1010.4 |
| 20260510054704 | 54 | 177 | 0.0 | 0.0 | 0.00 | 0.00 | 0.00 | 96 | 1010.2 |
| 20260510054200 | 54 | 177 | 0.0 | 0.0 | 0.00 | 0.00 | 0.00 | 96 | 1010.4 |
| 20260510053700 | 55 | 177 | 0.0 | 0.0 | 0.00 | 0.00 | 0.00 | 96 | 1010.4 |
| 20260510053157 | 55 | 178 | 0.0 | 0.0 | 0.00 | 0.00 | 0.00 | 96 | 1010.4 |
| 20260510052652 | 55 | 178 | 0.0 | 0.0 | 0.00 | 0.00 | 0.00 | 96 | 1010.4 |
| 20260510052149 | 55 | 179 | 0.0 | 0.0 | 0.00 | 0.00 | 0.00 | 95 | 1010.7 |
| 20260510051644 | 55 | 176 | 0.0 | 0.9 | 0.00 | 0.00 | 0.00 | 95 | 1010.7 |
| 20260510051141 | 56 | 163 | 0.0 | 0.0 | 0.00 | 0.00 | 0.00 | 95 | 1010.5 |
| 20260510050639 | 56 | 178 | 0.0 | 0.9 | 0.00 | 0.00 | 0.00 | 94 | 1010.5 |
| 20260510050136 | 56 | 166 | 0.0 | 0.0 | 0.00 | 0.00 | 0.00 | 94 | 1010.4 |
| 20260510045632 | 56 | 177 | 0.0 | 0.0 | 0.00 | 0.00 | 0.00 | 94 | 1010.7 |
| 20260510045129 | 57 | 177 | 0.0 | 0.0 | 0.00 | 0.00 | 0.00 | 93 | 1010.7 |
| 20260510044625 | 57 | 174 | 0.0 | 0.0 | 0.00 | 0.00 | 0.00 | 93 | 1010.5 |
| 20260510044123 | 57 | 166 | 0.0 | 0.0 | 0.00 | 0.00 | 0.00 | 92 | 1010.5 |
| 20260510043618 | 57 | 166 | 0.0 | 0.0 | 0.00 | 0.00 | 0.00 | 92 | 1010.3 |
| 20260510043115 | 57 | 162 | 0.0 | 0.0 | 0.00 | 0.00 | 0.00 | 92 | 1010.3 |
| 20260510042613 | 57 | 160 | 0.0 | 0.0 | 0.00 | 0.00 | 0.00 | 93 | 1010.4 |
| 20260510042109 | 57 | 174 | 0.0 | 0.0 | 0.00 | 0.00 | 0.00 | 94 | 1010.3 |
| 20260510041606 | 56 | 174 | 0.0 | 0.0 | 0.00 | 0.00 | 0.00 | 94 | 1010.5 |
| 20260510041103 | 56 | 174 | 0.0 | 0.0 | 0.00 | 0.00 | 0.00 | 93 | 1010.5 |
| 20260510040600 | 56 | 174 | 0.0 | 0.0 | 0.00 | 0.00 | 0.00 | 93 | 1010.3 |
| 20260510040056 | 57 | 174 | 0.0 | 0.0 | 0.00 | 0.00 | 0.00 | 93 | 1010.2 |
| 20260510035553 | 57 | 174 | 0.0 | 0.0 | 0.00 | 0.00 | 0.00 | 93 | 1010.3 |
| 20260510035052 | 57 | 174 | 0.0 | 0.0 | 0.00 | 0.00 | 0.00 | 92 | 1010.3 |
| 20260510034550 | 57 | 174 | 0.0 | 0.0 | 0.00 | 0.00 | 0.00 | 92 | 1010.3 |
| 20260510034047 | 57 | 174 | 0.0 | 0.0 | 0.00 | 0.00 | 0.00 | 91 | 1010.1 |
| 20260510033543 | 57 | 174 | 0.0 | 0.0 | 0.00 | 0.00 | 0.00 | 91 | 1010.2 |
| 20260510033041 | 58 | 174 | 0.0 | 0.0 | 0.00 | 0.00 | 0.00 | 90 | 1010.4 |
| 20260510032537 | 58 | 174 | 0.0 | 0.0 | 0.00 | 0.00 | 0.00 | 90 | 1010.1 |
| 20260510032033 | 58 | 174 | 0.0 | 0.0 | 0.00 | 0.00 | 0.00 | 90 | 1010.1 |
| 20260510031528 | 58 | 174 | 0.0 | 0.0 | 0.00 | 0.00 | 0.00 | 89 | 1010.3 |
| 20260510031024 | 59 | 174 | 0.0 | 0.0 | 0.00 | 0.00 | 0.00 | 88 | 1010.2 |
| 20260510030519 | 59 | 174 | 0.0 | 0.0 | 0.00 | 0.00 | 0.00 | 88 | 1010.2 |
| 20260510030017 | 59 | 174 | 0.0 | 0.0 | 0.00 | 0.00 | 0.00 | 88 | 1010.3 |
| 20260510025514 | 59 | 174 | 0.0 | 0.0 | 0.00 | 0.00 | 0.00 | 87 | 1010.1 |
| 20260510025012 | 60 | 174 | 0.0 | 0.0 | 0.00 | 0.00 | 0.00 | 87 | 1010.2 |
| 20260510024508 | 60 | 174 | 0.0 | 0.0 | 0.00 | 0.00 | 0.00 | 86 | 1010.1 |
| 20260510024004 | 60 | 174 | 0.0 | 0.0 | 0.00 | 0.00 | 0.00 | 86 | 1010.1 |
| 20260510023500 | 60 | 169 | 0.0 | 0.0 | 0.00 | 0.00 | 0.00 | 86 | 1010.0 |
| 20260510022958 | 60 | 169 | 0.0 | 0.0 | 0.00 | 0.00 | 0.00 | 86 | 1010.0 |
| 20260510022457 | 60 | 169 | 0.0 | 0.0 | 0.00 | 0.00 | 0.00 | 85 | 1009.7 |
| 20260510021956 | 60 | 169 | 0.0 | 0.0 | 0.00 | 0.00 | 0.00 | 85 | 1009.9 |
| 20260510021454 | 61 | 169 | 0.0 | 0.0 | 0.00 | 0.00 | 0.00 | 85 | 1009.9 |
| 20260510020951 | 61 | 169 | 0.0 | 0.0 | 0.00 | 0.00 | 0.00 | 85 | 1009.8 |
| 20260510020451 | 61 | 169 | 0.0 | 0.0 | 0.00 | 0.00 | 0.00 | 84 | 1009.9 |
| 20260510015946 | 61 | 169 | 0.0 | 0.0 | 0.00 | 0.00 | 0.00 | 85 | 1009.7 |
| 20260510015437 | 61 | 169 | 0.0 | 0.0 | 0.00 | 0.00 | 0.00 | 84 | 1009.6 |
| 20260510014932 | 61 | 169 | 0.0 | 0.0 | 0.00 | 0.00 | 0.00 | 84 | 1009.6 |
| 20260510014430 | 61 | 169 | 0.0 | 0.0 | 0.00 | 0.00 | 0.00 | 83 | 1009.5 |
| 20260510013926 | 61 | 169 | 0.0 | 0.0 | 0.00 | 0.00 | 0.00 | 83 | 1009.6 |
| 20260510013421 | 61 | 167 | 0.0 | 0.0 | 0.00 | 0.00 | 0.00 | 82 | 1009.2 |
| 20260510012917 | 61 | 167 | 0.0 | 0.0 | 0.00 | 0.00 | 0.00 | 82 | 1009.4 |
| 20260510012412 | 61 | 166 | 0.0 | 0.0 | 0.00 | 0.00 | 0.00 | 82 | 1009.2 |
| 20260510011907 | 61 | 166 | 0.0 | 0.0 | 0.00 | 0.00 | 0.00 | 82 | 1009.2 |
| 20260510011402 | 60 | 169 | 0.0 | 0.0 | 0.00 | 0.00 | 0.00 | 83 | 1009.0 |
| 20260510010858 | 61 | 169 | 0.0 | 0.0 | 0.00 | 0.00 | 0.00 | 81 | 1009.1 |
| 20260510010356 | 61 | 169 | 0.0 | 0.0 | 0.00 | 0.00 | 0.00 | 81 | 1009.0 |
| 20260510005852 | 62 | 169 | 0.0 | 0.0 | 0.00 | 0.00 | 0.00 | 81 | 1008.9 |
| 20260510005349 | 62 | 169 | 0.0 | 0.0 | 0.00 | 0.00 | 0.00 | 80 | 1009.0 |
| 20260510004846 | 62 | 169 | 0.0 | 0.0 | 0.00 | 0.00 | 0.00 | 80 | 1008.9 |
| 20260510004344 | 62 | 169 | 0.0 | 0.0 | 0.00 | 0.00 | 0.00 | 79 | 1009.0 |
| 20260510003841 | 62 | 169 | 0.0 | 0.0 | 0.00 | 0.00 | 0.00 | 78 | 1008.7 |
| 20260510003338 | 63 | 169 | 0.0 | 0.0 | 0.00 | 0.00 | 0.00 | 77 | 1008.8 |
| 20260510002836 | 63 | 169 | 0.0 | 0.0 | 0.00 | 0.00 | 0.00 | 76 | 1008.8 |
| 20260510002334 | 64 | 169 | 0.0 | 0.0 | 0.00 | 0.00 | 0.00 | 74 | 1008.6 |
| 20260510001831 | 65 | 169 | 0.0 | 0.0 | 0.00 | 0.00 | 0.00 | 74 | 1008.6 |
| 20260510001329 | 66 | 169 | 0.0 | 0.0 | 0.00 | 0.00 | 0.00 | 73 | 1008.7 |
| 20260510000825 | 66 | 169 | 0.0 | 0.0 | 0.00 | 0.00 | 0.00 | 70 | 1008.6 |
| 20260510000322 | 67 | 169 | 0.0 | 0.0 | 0.00 | 0.00 | 0.00 | 70 | 1008.3 |
| 20260509235819 | 68 | 168 | 0.0 | 0.0 | 0.00 | 0.00 | 0.00 | 69 | 1008.4 |
| 20260509235315 | 68 | 168 | 0.0 | 0.0 | 0.00 | 0.00 | 0.00 | 68 | 1008.5 |
| 20260509234811 | 68 | 168 | 0.0 | 0.0 | 0.00 | 0.00 | 0.00 | 68 | 1008.5 |
| 20260509234308 | 69 | 168 | 0.0 | 0.0 | 0.00 | 0.00 | 0.00 | 66 | 1008.4 |
| 20260509233806 | 69 | 169 | 0.0 | 0.0 | 0.00 | 0.00 | 0.00 | 65 | 1008.3 |
| 20260509233304 | 70 | 169 | 0.0 | 0.0 | 0.00 | 0.00 | 0.00 | 63 | 1008.4 |
| 20260509232759 | 71 | 169 | 0.0 | 0.0 | 0.00 | 0.00 | 0.00 | 62 | 1008.3 |
| 20260509232257 | 71 | 161 | 0.0 | 0.0 | 0.00 | 0.00 | 0.00 | 60 | 1008.3 |
| 20260509231753 | 71 | 163 | 0.9 | 0.9 | 0.00 | 0.00 | 0.00 | 60 | 1008.5 |
| 20260509231250 | 71 | 161 | 0.0 | 0.9 | 0.00 | 0.00 | 0.00 | 60 | 1008.4 |
| 20260509230748 | 71 | 165 | 0.0 | 0.0 | 0.00 | 0.00 | 0.00 | 61 | 1008.3 |
| 20260509230244 | 71 | 161 | 0.9 | 0.9 | 0.00 | 0.00 | 0.00 | 60 | 1008.3 |
| 20260509225739 | 71 | 147 | 2.6 | 2.6 | 0.00 | 0.00 | 0.00 | 60 | 1008.3 |
| 20260509225236 | 71 | 169 | 0.0 | 0.9 | 0.00 | 0.00 | 0.00 | 60 | 1008.2 |
| 20260509224732 | 72 | 162 | 0.0 | 0.0 | 0.00 | 0.00 | 0.00 | 60 | 1008.2 |
| 20260509224229 | 72 | 163 | 0.0 | 0.0 | 0.00 | 0.00 | 0.00 | 60 | 1008.3 |
| 20260509223726 | 72 | 154 | 2.6 | 2.6 | 0.00 | 0.00 | 0.00 | 58 | 1008.4 |
| 20260509223223 | 72 | 118 | 2.6 | 4.3 | 0.00 | 0.00 | 0.00 | 58 | 1008.3 |
| 20260509222720 | 73 | 120 | 2.6 | 2.6 | 0.00 | 0.00 | 0.00 | 56 | 1008.2 |
| 20260509222215 | 73 | 158 | 0.9 | 1.7 | 0.00 | 0.00 | 0.00 | 53 | 1008.2 |
| 20260509221711 | 73 | 189 | 0.9 | 0.9 | 0.00 | 0.00 | 0.00 | 52 | 1008.4 |
| 20260509221207 | 73 | 154 | 1.7 | 1.7 | 0.00 | 0.00 | 0.00 | 52 | 1008.3 |
| 20260509220703 | 73 | 163 | 0.9 | 0.9 | 0.00 | 0.00 | 0.00 | 52 | 1008.4 |
| 20260509220200 | 74 | 167 | 0.0 | 0.9 | 0.00 | 0.00 | 0.00 | 54 | 1008.1 |
| 20260509215655 | 76 | 212 | 0.9 | 1.7 | 0.00 | 0.00 | 0.00 | 49 | 1008.2 |
| 20260509215153 | 76 | 124 | 0.9 | 0.9 | 0.00 | 0.00 | 0.00 | 48 | 1008.1 |
| 20260509214650 | 76 | 183 | 0.9 | 0.9 | 0.00 | 0.00 | 0.00 | 50 | 1008.2 |
| 20260509214146 | 75 | 220 | 0.0 | 1.7 | 0.00 | 0.00 | 0.00 | 51 | 1008.2 |
| 20260509213644 | 74 | 127 | 2.6 | 2.6 | 0.00 | 0.00 | 0.00 | 52 | 1008.2 |
| 20260509213139 | 74 | 160 | 0.9 | 0.9 | 0.00 | 0.00 | 0.00 | 52 | 1008.1 |
| 20260509212637 | 73 | 207 | 0.0 | 0.0 | 0.00 | 0.00 | 0.00 | 55 | 1008.2 |
| 20260509212133 | 72 | 175 | 0.0 | 0.0 | 0.00 | 0.00 | 0.00 | 58 | 1008.3 |
| 20260509211629 | 72 | 159 | 0.9 | 0.9 | 0.00 | 0.00 | 0.00 | 55 | 1008.4 |
| 20260509211126 | 75 | 203 | 0.9 | 0.9 | 0.00 | 0.00 | 0.00 | 54 | 1008.3 |
| 20260509210623 | 76 | 143 | 5.2 | 6.1 | 0.00 | 0.00 | 0.00 | 52 | 1008.3 |
| 20260509210120 | 73 | 174 | 2.6 | 4.3 | 0.00 | 0.00 | 0.00 | 54 | 1008.4 |
| 20260509205614 | 74 | 155 | 0.9 | 0.9 | 0.00 | 0.00 | 0.00 | 53 | 1008.4 |
| 20260509205109 | 75 | 252 | 2.6 | 4.3 | 0.00 | 0.00 | 0.00 | 53 | 1008.5 |
| 20260509204606 | 74 | 161 | 0.9 | 1.7 | 0.00 | 0.00 | 0.00 | 55 | 1008.2 |
| 20260509204103 | 73 | 230 | 1.7 | 1.7 | 0.00 | 0.00 | 0.00 | 58 | 1008.3 |
| 20260509203558 | 74 | 151 | 2.6 | 2.6 | 0.00 | 0.00 | 0.00 | 55 | 1008.3 |
| 20260509203056 | 74 | 18 | 1.7 | 2.6 | 0.00 | 0.00 | 0.00 | 55 | 1008.2 |
| 20260509202551 | 75 | 187 | 0.0 | 0.9 | 0.00 | 0.00 | 0.00 | 54 | 1007.9 |
| 20260509202047 | 74 | 180 | 0.0 | 0.9 | 0.00 | 0.00 | 0.00 | 54 | 1008.1 |
| 20260509201542 | 74 | 207 | 1.7 | 2.6 | 0.00 | 0.00 | 0.00 | 56 | 1008.3 |
| 20260509201040 | 72 | 144 | 2.6 | 2.6 | 0.00 | 0.00 | 0.00 | 55 | 1008.0 |
| 20260509200539 | 72 | 246 | 2.6 | 2.6 | 0.00 | 0.00 | 0.00 | 58 | 1008.5 |
| 20260509200036 | 73 | 144 | 3.5 | 4.3 | 0.00 | 0.00 | 0.00 | 57 | 1008.5 |
| 20260509195531 | 73 | 191 | 1.7 | 2.6 | 0.00 | 0.00 | 0.00 | 56 | 1008.3 |
| 20260509195026 | 72 | 139 | 3.5 | 4.3 | 0.00 | 0.00 | 0.00 | 56 | 1008.6 |
| 20260509194521 | 73 | 59 | 1.7 | 1.7 | 0.00 | 0.00 | 0.00 | 57 | 1008.8 |
| 20260509194019 | 72 | 158 | 2.6 | 2.6 | 0.00 | 0.00 | 0.00 | 55 | 1008.9 |
| 20260509193519 | 73 | 199 | 2.6 | 2.6 | 0.00 | 0.00 | 0.00 | 56 | 1009.0 |
| 20260509193016 | 71 | 321 | 2.6 | 4.3 | 0.00 | 0.00 | 0.00 | 58 | 1009.1 |
| 20260509192512 | 71 | 187 | 2.6 | 4.3 | 0.00 | 0.00 | 0.00 | 58 | 1009.0 |
| 20260509192007 | 70 | 317 | 1.7 | 1.7 | 0.00 | 0.00 | 0.00 | 60 | 1009.4 |
| 20260509191502 | 70 | 196 | 1.7 | 1.7 | 0.00 | 0.00 | 0.00 | 59 | 1009.4 |
| 20260509190958 | 71 | 174 | 0.0 | 0.0 | 0.00 | 0.00 | 0.00 | 59 | 1009.5 |
| 20260509190455 | 70 | 217 | 1.7 | 1.7 | 0.00 | 0.00 | 0.00 | 61 | 1009.2 |
| 20260509185953 | 69 | 277 | 2.6 | 4.3 | 0.00 | 0.00 | 0.00 | 61 | 1009.3 |
| 20260509185450 | 69 | 184 | 0.9 | 0.9 | 0.00 | 0.00 | 0.00 | 62 | 1009.3 |
| 20260509184946 | 69 | 153 | 0.9 | 0.9 | 0.00 | 0.00 | 0.00 | 62 | 1009.4 |
| 20260509184445 | 69 | 144 | 0.9 | 1.7 | 0.00 | 0.00 | 0.00 | 61 | 1009.3 |
| 20260509183941 | 69 | 149 | 0.9 | 1.7 | 0.00 | 0.00 | 0.00 | 62 | 1009.4 |
| 20260509183435 | 69 | 168 | 0.0 | 0.9 | 0.00 | 0.00 | 0.00 | 61 | 1009.3 |
| 20260509182932 | 69 | 166 | 0.0 | 0.0 | 0.00 | 0.00 | 0.00 | 61 | 1009.7 |
| 20260509182428 | 68 | 168 | 0.9 | 0.9 | 0.00 | 0.00 | 0.00 | 61 | 1009.7 |
| 20260509181926 | 68 | 179 | 0.0 | 0.0 | 0.00 | 0.00 | 0.00 | 62 | 1009.9 |
| 20260509181424 | 68 | 152 | 0.0 | 0.0 | 0.00 | 0.00 | 0.00 | 61 | 1009.7 |
| 20260509180921 | 68 | 177 | 0.9 | 0.9 | 0.00 | 0.00 | 0.00 | 62 | 1009.8 |
| 20260509180416 | 68 | 354 | 1.7 | 1.7 | 0.00 | 0.00 | 0.00 | 61 | 1010.0 |
| 20260509175913 | 68 | 16 | 0.9 | 1.7 | 0.00 | 0.00 | 0.00 | 62 | 1010.1 |
| 20260509175409 | 68 | 238 | 1.7 | 1.7 | 0.00 | 0.00 | 0.00 | 62 | 1010.0 |
| 20260509174905 | 68 | 181 | 0.0 | 0.9 | 0.00 | 0.00 | 0.00 | 62 | 1010.3 |
| 20260509174402 | 68 | 198 | 1.7 | 1.7 | 0.00 | 0.00 | 0.00 | 62 | 1010.3 |
| 20260509173857 | 67 | 158 | 0.9 | 0.9 | 0.00 | 0.00 | 0.00 | 63 | 1010.4 |
| 20260509173352 | 68 | 187 | 1.7 | 2.6 | 0.00 | 0.00 | 0.00 | 63 | 1010.3 |
| 20260509172848 | 68 | 179 | 0.9 | 0.9 | 0.00 | 0.00 | 0.00 | 62 | 1010.1 |
| 20260509172345 | 68 | 213 | 0.9 | 1.7 | 0.00 | 0.00 | 0.00 | 61 | 1010.1 |
| 20260509171841 | 68 | 197 | 2.6 | 4.3 | 0.00 | 0.00 | 0.00 | 61 | 1010.3 |
| 20260509171337 | 69 | 196 | 2.6 | 2.6 | 0.00 | 0.00 | 0.00 | 60 | 1010.2 |
| 20260509170834 | 69 | 284 | 1.7 | 1.7 | 0.00 | 0.00 | 0.00 | 64 | 1010.4 |
| 20260509170329 | 68 | 62 | 0.9 | 1.7 | 0.00 | 0.00 | 0.00 | 65 | 1010.2 |
| 20260509165824 | 68 | 144 | 2.6 | 2.6 | 0.00 | 0.00 | 0.00 | 61 | 1010.5 |
| 20260509165319 | 68 | 166 | 0.9 | 0.9 | 0.00 | 0.00 | 0.00 | 65 | 1010.5 |
| 20260509164815 | 68 | 153 | 0.9 | 0.9 | 0.00 | 0.00 | 0.00 | 64 | 1010.5 |
| 20260509164312 | 67 | 215 | 1.7 | 1.7 | 0.00 | 0.00 | 0.00 | 65 | 1010.5 |
| 20260509163808 | 67 | 135 | 2.6 | 4.3 | 0.00 | 0.00 | 0.00 | 63 | 1010.7 |
| 20260509163304 | 67 | 220 | 0.9 | 2.6 | 0.00 | 0.00 | 0.00 | 64 | 1010.8 |
| 20260509162804 | 67 | 121 | 0.0 | 0.9 | 0.00 | 0.00 | 0.00 | 63 | 1010.8 |
| 20260509162257 | 67 | 184 | 1.7 | 2.6 | 0.00 | 0.00 | 0.00 | 63 | 1010.7 |
| 20260509161753 | 66 | 173 | 0.0 | 0.9 | 0.00 | 0.00 | 0.00 | 63 | 1010.5 |
| 20260509161249 | 67 | 180 | 1.7 | 2.6 | 0.00 | 0.00 | 0.00 | 63 | 1010.8 |
| 20260509160745 | 66 | 307 | 0.9 | 0.9 | 0.00 | 0.00 | 0.00 | 62 | 1010.7 |
| 20260509160241 | 67 | 184 | 0.9 | 1.7 | 0.00 | 0.00 | 0.00 | 62 | 1010.9 |
| 20260509155736 | 67 | 129 | 1.7 | 2.6 | 0.00 | 0.00 | 0.00 | 62 | 1010.5 |
| 20260509155234 | 67 | 152 | 2.6 | 2.6 | 0.00 | 0.00 | 0.00 | 62 | 1010.8 |
| 20260509154730 | 66 | 203 | 0.9 | 0.9 | 0.00 | 0.00 | 0.00 | 65 | 1010.8 |
| 20260509154227 | 67 | 195 | 2.6 | 4.3 | 0.00 | 0.00 | 0.00 | 63 | 1010.8 |
| 20260509153724 | 66 | 125 | 1.7 | 1.7 | 0.00 | 0.00 | 0.00 | 63 | 1011.0 |
| 20260509153220 | 66 | 276 | 2.6 | 4.3 | 0.00 | 0.00 | 0.00 | 64 | 1010.9 |
| 20260509152716 | 66 | 144 | 1.7 | 1.7 | 0.00 | 0.00 | 0.00 | 63 | 1011.1 |
| 20260509152213 | 65 | 57 | 1.7 | 2.6 | 0.00 | 0.00 | 0.00 | 65 | 1011.0 |
| 20260509151710 | 65 | 202 | 2.6 | 2.6 | 0.00 | 0.00 | 0.00 | 65 | 1011.1 |
| 20260509151207 | 65 | 142 | 0.9 | 1.7 | 0.00 | 0.00 | 0.00 | 65 | 1010.9 |
| 20260509150705 | 64 | 239 | 1.7 | 1.7 | 0.00 | 0.00 | 0.00 | 65 | 1011.0 |
| 20260509150203 | 64 | 317 | 1.7 | 2.6 | 0.00 | 0.00 | 0.00 | 67 | 1011.2 |
| 20260509145658 | 63 | 170 | 0.9 | 1.7 | 0.00 | 0.00 | 0.00 | 67 | 1011.1 |
| 20260509145154 | 63 | 161 | 0.9 | 1.7 | 0.00 | 0.00 | 0.00 | 65 | 1011.0 |
| 20260509144650 | 63 | 176 | 0.0 | 0.9 | 0.00 | 0.00 | 0.00 | 66 | 1011.3 |
| 20260509144148 | 62 | 143 | 1.7 | 2.6 | 0.00 | 0.00 | 0.00 | 67 | 1011.3 |
| 20260509143645 | 62 | 161 | 2.6 | 4.3 | 0.00 | 0.00 | 0.00 | 66 | 1011.3 |
| 20260509143143 | 62 | 161 | 1.7 | 1.7 | 0.00 | 0.00 | 0.00 | 67 | 1011.4 |
| 20260509142638 | 61 | 157 | 3.5 | 5.2 | 0.00 | 0.00 | 0.00 | 67 | 1011.5 |
| 20260509142135 | 61 | 146 | 2.6 | 4.3 | 0.00 | 0.00 | 0.00 | 67 | 1011.6 |
| 20260509141630 | 60 | 142 | 2.6 | 5.2 | 0.00 | 0.00 | 0.00 | 69 | 1011.7 |
| 20260509141127 | 60 | 157 | 1.7 | 1.7 | 0.00 | 0.00 | 0.00 | 68 | 1011.7 |
| 20260509140624 | 59 | 149 | 3.5 | 4.3 | 0.00 | 0.00 | 0.00 | 70 | 1011.7 |
| 20260509140122 | 59 | 160 | 1.7 | 1.7 | 0.00 | 0.00 | 0.00 | 70 | 1011.6 |
| 20260509135619 | 59 | 145 | 2.6 | 2.6 | 0.00 | 0.00 | 0.00 | 69 | 1011.7 |
| 20260509135117 | 59 | 139 | 2.6 | 2.6 | 0.00 | 0.00 | 0.00 | 70 | 1011.7 |
| 20260509134613 | 59 | 143 | 1.7 | 2.6 | 0.00 | 0.00 | 0.00 | 69 | 1011.8 |
| 20260509134111 | 59 | 158 | 2.6 | 2.6 | 0.00 | 0.00 | 0.00 | 69 | 1011.7 |
| 20260509133608 | 58 | 122 | 0.9 | 0.9 | 0.00 | 0.00 | 0.00 | 70 | 1011.6 |
| 20260509133105 | 58 | 138 | 2.6 | 4.3 | 0.00 | 0.00 | 0.00 | 69 | 1011.8 |
| 20260509132603 | 58 | 153 | 0.0 | 0.9 | 0.00 | 0.00 | 0.00 | 70 | 1011.8 |
| 20260509132102 | 58 | 163 | 0.9 | 0.9 | 0.00 | 0.00 | 0.00 | 69 | 1011.8 |
| 20260509131557 | 58 | 152 | 0.9 | 0.9 | 0.00 | 0.00 | 0.00 | 69 | 1011.9 |
| 20260509131054 | 58 | 162 | 0.9 | 0.9 | 0.00 | 0.00 | 0.00 | 70 | 1011.7 |
| 20260509130550 | 58 | 146 | 0.9 | 0.9 | 0.00 | 0.00 | 0.00 | 69 | 1011.7 |
| 20260509130047 | 58 | 166 | 0.0 | 0.9 | 0.00 | 0.00 | 0.00 | 69 | 1011.6 |
| 20260509125543 | 58 | 115 | 4.3 | 6.1 | 0.00 | 0.00 | 0.00 | 68 | 1011.7 |
| 20260509125041 | 58 | 158 | 1.7 | 1.7 | 0.00 | 0.00 | 0.00 | 69 | 1011.5 |
| 20260509124536 | 58 | 143 | 2.6 | 2.6 | 0.00 | 0.00 | 0.00 | 68 | 1011.6 |
| 20260509124034 | 58 | 149 | 2.6 | 2.6 | 0.00 | 0.00 | 0.00 | 68 | 1011.7 |
| 20260509123532 | 58 | 164 | 1.7 | 1.7 | 0.00 | 0.00 | 0.00 | 68 | 1011.4 |
| 20260509123027 | 58 | 161 | 2.6 | 2.6 | 0.00 | 0.00 | 0.00 | 67 | 1011.8 |
| 20260509122524 | 58 | 153 | 1.7 | 1.7 | 0.00 | 0.00 | 0.00 | 67 | 1011.5 |
| 20260509122021 | 58 | 154 | 0.9 | 1.7 | 0.00 | 0.00 | 0.00 | 67 | 1011.5 |
| 20260509121518 | 57 | 153 | 0.9 | 1.7 | 0.00 | 0.00 | 0.00 | 67 | 1011.6 |
| 20260509121016 | 57 | 159 | 0.9 | 0.9 | 0.00 | 0.00 | 0.00 | 66 | 1011.7 |
| 20260509120514 | 57 | 155 | 1.7 | 1.7 | 0.00 | 0.00 | 0.00 | 66 | 1011.8 |
| 20260509120012 | 57 | 159 | 3.5 | 4.3 | 0.00 | 0.00 | 0.00 | 66 | 1011.7 |
| 20260509115508 | 57 | 158 | 0.9 | 0.9 | 0.00 | 0.00 | 0.00 | 65 | 1011.6 |
| 20260509115006 | 57 | 157 | 1.7 | 2.6 | 0.00 | 0.00 | 0.00 | 66 | 1011.4 |
| 20260509114504 | 57 | 152 | 1.7 | 1.7 | 0.00 | 0.00 | 0.00 | 66 | 1011.6 |
| 20260509114003 | 57 | 158 | 0.9 | 0.9 | 0.00 | 0.00 | 0.00 | 65 | 1011.6 |
| 20260509113500 | 57 | 173 | 1.7 | 1.7 | 0.00 | 0.00 | 0.00 | 66 | 1011.7 |
| 20260509112957 | 57 | 156 | 0.0 | 0.0 | 0.00 | 0.00 | 0.00 | 65 | 1011.5 |
| 20260509112454 | 57 | 147 | 2.6 | 4.3 | 0.00 | 0.00 | 0.00 | 64 | 1011.4 |
| 20260509111950 | 57 | 138 | 1.7 | 1.7 | 0.00 | 0.00 | 0.00 | 64 | 1011.4 |
| 20260509111448 | 57 | 160 | 1.7 | 2.6 | 0.00 | 0.00 | 0.00 | 63 | 1011.5 |
| 20260509110946 | 57 | 140 | 0.9 | 1.7 | 0.00 | 0.00 | 0.00 | 62 | 1011.5 |
| 20260509110441 | 58 | 161 | 1.7 | 1.7 | 0.00 | 0.00 | 0.00 | 61 | 1011.5 |
| 20260509105939 | 58 | 146 | 2.6 | 2.6 | 0.00 | 0.00 | 0.00 | 60 | 1011.3 |
| 20260509105438 | 58 | 157 | 1.7 | 1.7 | 0.00 | 0.00 | 0.00 | 59 | 1011.1 |
| 20260509104934 | 58 | 151 | 1.7 | 1.7 | 0.00 | 0.00 | 0.00 | 58 | 1011.5 |
| 20260509104431 | 59 | 149 | 3.5 | 4.3 | 0.00 | 0.00 | 0.00 | 57 | 1011.4 |
| 20260509103928 | 59 | 164 | 0.0 | 0.0 | 0.00 | 0.00 | 0.00 | 57 | 1011.2 |
| 20260509103426 | 58 | 162 | 0.0 | 0.0 | 0.00 | 0.00 | 0.00 | 57 | 1011.3 |
| 20260509102924 | 58 | 167 | 0.0 | 0.0 | 0.00 | 0.00 | 0.00 | 59 | 1011.1 |
| 20260509102421 | 58 | 180 | 0.0 | 0.9 | 0.00 | 0.00 | 0.00 | 58 | 1010.9 |
| 20260509101917 | 58 | 183 | 0.0 | 0.9 | 0.00 | 0.00 | 0.00 | 57 | 1011.0 |
| 20260509101414 | 58 | 166 | 0.0 | 0.0 | 0.00 | 0.00 | 0.00 | 57 | 1011.1 |
| 20260509100911 | 58 | 162 | 2.6 | 4.3 | 0.00 | 0.00 | 0.00 | 57 | 1011.0 |
| 20260509100408 | 58 | 167 | 0.0 | 0.0 | 0.00 | 0.00 | 0.00 | 58 | 1011.1 |
| 20260509095905 | 58 | 178 | 0.0 | 0.0 | 0.00 | 0.00 | 0.00 | 57 | 1011.0 |
| 20260509095402 | 58 | 200 | 0.9 | 1.7 | 0.00 | 0.00 | 0.00 | 57 | 1011.1 |
| 20260509094859 | 58 | 183 | 0.0 | 0.9 | 0.00 | 0.00 | 0.00 | 57 | 1010.8 |
| 20260509094355 | 58 | 180 | 0.0 | 0.0 | 0.00 | 0.00 | 0.00 | 57 | 1010.9 |
| 20260509093854 | 58 | 213 | 0.9 | 1.7 | 0.00 | 0.00 | 0.00 | 57 | 1010.7 |
| 20260509093350 | 58 | 227 | 2.6 | 2.6 | 0.00 | 0.00 | 0.00 | 57 | 1011.0 |
| 20260509092849 | 58 | 179 | 0.9 | 0.9 | 0.00 | 0.00 | 0.00 | 58 | 1010.9 |
| 20260509092346 | 58 | 173 | 0.0 | 0.0 | 0.00 | 0.00 | 0.00 | 58 | 1011.4 |
| 20260509091844 | 58 | 189 | 1.7 | 1.7 | 0.00 | 0.00 | 0.00 | 58 | 1011.3 |
| 20260509091341 | 58 | 217 | 0.9 | 1.7 | 0.00 | 0.00 | 0.00 | 59 | 1011.1 |
| 20260509090838 | 58 | 184 | 0.0 | 0.9 | 0.00 | 0.00 | 0.00 | 59 | 1011.3 |
| 20260509090336 | 57 | 190 | 0.9 | 0.9 | 0.00 | 0.00 | 0.00 | 59 | 1011.3 |
| 20260509085833 | 57 | 173 | 0.0 | 0.0 | 0.00 | 0.00 | 0.00 | 60 | 1011.2 |
| 20260509085330 | 57 | 181 | 0.9 | 0.9 | 0.00 | 0.00 | 0.00 | 60 | 1011.2 |
| 20260509084826 | 57 | 236 | 0.0 | 0.9 | 0.00 | 0.00 | 0.00 | 60 | 1011.3 |
| 20260509084323 | 57 | 174 | 0.0 | 0.0 | 0.00 | 0.00 | 0.00 | 60 | 1011.4 |
| 20260509083821 | 57 | 154 | 1.7 | 1.7 | 0.00 | 0.00 | 0.00 | 59 | 1011.5 |
| 20260509083317 | 57 | 173 | 0.9 | 0.9 | 0.00 | 0.00 | 0.00 | 60 | 1011.4 |
| 20260509082814 | 57 | 199 | 0.9 | 1.7 | 0.00 | 0.00 | 0.00 | 60 | 1011.5 |
| 20260509082310 | 57 | 162 | 0.0 | 0.0 | 0.00 | 0.00 | 0.00 | 59 | 1011.4 |
| 20260509081808 | 57 | 140 | 2.6 | 2.6 | 0.00 | 0.00 | 0.00 | 59 | 1011.4 |
| 20260509081305 | 57 | 141 | 0.9 | 0.9 | 0.00 | 0.00 | 0.00 | 60 | 1011.6 |
| 20260509080803 | 57 | 126 | 3.5 | 4.3 | 0.00 | 0.00 | 0.00 | 60 | 1011.7 |
| 20260509080301 | 57 | 137 | 3.5 | 5.2 | 0.00 | 0.00 | 0.00 | 59 | 1011.6 |
| 20260509075759 | 57 | 148 | 0.0 | 0.0 | 0.00 | 0.00 | 0.00 | 60 | 1011.7 |
| 20260509075256 | 57 | 150 | 2.6 | 2.6 | 0.00 | 0.00 | 0.00 | 60 | 1011.9 |
| 20260509074753 | 57 | 108 | 4.3 | 5.2 | 0.00 | 0.00 | 0.00 | 60 | 1011.8 |
| 20260509074251 | 57 | 71 | 0.9 | 1.7 | 0.00 | 0.00 | 0.00 | 61 | 1011.7 |
| 20260509073747 | 57 | 119 | 0.9 | 0.9 | 0.00 | 0.00 | 0.00 | 60 | 1012.0 |
| 20260509073243 | 57 | 136 | 0.0 | 0.9 | 0.00 | 0.00 | 0.00 | 59 | 1011.9 |
| 20260509072739 | 57 | 178 | 0.9 | 0.9 | 0.00 | 0.00 | 0.00 | 60 | 1012.0 |
| 20260509072236 | 57 | 121 | 5.2 | 8.7 | 0.00 | 0.00 | 0.00 | 59 | 1011.9 |
| 20260509071733 | 57 | 155 | 1.7 | 2.6 | 0.00 | 0.00 | 0.00 | 59 | 1012.0 |
| 20260509071230 | 57 | 127 | 1.7 | 2.6 | 0.00 | 0.00 | 0.00 | 59 | 1012.0 |
| 20260509070727 | 57 | 149 | 2.6 | 2.6 | 0.00 | 0.00 | 0.00 | 59 | 1012.0 |
| 20260509070224 | 57 | 140 | 1.7 | 1.7 | 0.00 | 0.00 | 0.00 | 58 | 1011.8 |
| 20260509065720 | 57 | 159 | 0.9 | 1.7 | 0.00 | 0.00 | 0.00 | 58 | 1012.0 |
| 20260509065216 | 57 | 142 | 1.7 | 2.6 | 0.00 | 0.00 | 0.00 | 58 | 1012.1 |
| 20260509064713 | 58 | 160 | 0.9 | 0.9 | 0.00 | 0.00 | 0.00 | 57 | 1011.9 |
| 20260509064210 | 58 | 134 | 1.7 | 1.7 | 0.00 | 0.00 | 0.00 | 57 | 1012.0 |
| 20260509063708 | 58 | 159 | 0.9 | 0.9 | 0.00 | 0.00 | 0.00 | 57 | 1011.9 |
| 20260509063204 | 58 | 152 | 0.9 | 1.7 | 0.00 | 0.00 | 0.00 | 56 | 1012.0 |
| 20260509062701 | 58 | 145 | 1.7 | 1.7 | 0.00 | 0.00 | 0.00 | 57 | 1012.0 |
| 20260509062158 | 58 | 122 | 2.6 | 2.6 | 0.00 | 0.00 | 0.00 | 56 | 1012.2 |
| 20260509061655 | 58 | 139 | 0.9 | 0.9 | 0.00 | 0.00 | 0.00 | 57 | 1012.1 |